Home > Weather > Berkeley > Past weeks

Flag for USA Past Weather in Berkeley, California, USA — Yesterday and Last 2 Weeks

Now
62 °F

Passing clouds.


Feels Like: 62 °F
Forecast: 59 / 68 °F
Wind: 10 mph from West

Location: Metro Oakland International Airport

Current Time: Aug 28, 2016 at 12:14:58 AM

Latest Report: Aug 27, 2016 at 11:53 PM


Visibility: 10 mi

Pressure: 30.04 "Hg

Humidity: 78%

Dew Point: 55 °F

Location of BerkeleyLocation

Past Weather in Berkeley — Graph

°F

Berkeley Temperature Yesterday

Maximum temperature yesterday: 71 °F (at 12:53 PM)
Minimum temperature yesterday: 63 °F (at 4:53 AM)
Average temperature yesterday: 66 °F

High & Low Weather Summary for the Past Weeks

 TemperatureHumidityPressure
High73 °F (Aug 13, 12:53 PM)93% (Aug 13, 1:53 AM)30.12 "Hg (Aug 13, 1:53 AM)
Low57 °F (Aug 13, 1:53 AM)55% (Aug 13, 12:53 PM)29.80 "Hg (Aug 17, 4:53 PM)
Average63 °F79%29.94 "Hg
* Reported Aug 12 10:53 PM — Aug 27 10:53 PM, Berkeley, Weather by CustomWeather, © 2016

Note: Actual official high and low records may vary slightly from our data, if they occured in-between our weather recording intervals... More about our weather records

Advertising

Berkeley Weather History for the Previous 24 Hours

Scroll right to see more
 ConditionsComfort  
Time TempWeatherWind HumidityBarometerVisibility
10:53 PM
Sat, Aug 27
63 °FPassing clouds.12 mph75%30.03 "Hg10 mi
9:53 PM63 °FPassing clouds.12 mph75%30.03 "Hg10 mi
8:53 PM63 °FPassing clouds.13 mph75%30.01 "Hg10 mi
7:53 PM64 °FPassing clouds.15 mph73%29.99 "Hg10 mi
6:53 PM67 °FPassing clouds.15 mph66%29.98 "Hg10 mi
5:53 PM68 °FPassing clouds.17 mph63%29.99 "Hg10 mi
4:53 PM70 °FPassing clouds.16 mph59%29.98 "Hg10 mi
3:53 PM71 °FPassing clouds.16 mph59%29.99 "Hg10 mi
2:53 PM70 °FPassing clouds.15 mph64%30.00 "Hg10 mi
1:53 PM71 °FPassing clouds.13 mph59%30.01 "Hg10 mi
12:53 PM71 °FPartly sunny.7 mph59%30.02 "Hg10 mi
11:53 AM67 °FPartly sunny.No wind66%30.03 "Hg10 mi
10:53 AM65 °FOvercast.3 mph70%30.03 "Hg10 mi
9:53 AM64 °FOvercast.5 mph73%30.01 "Hg10 mi
8:53 AM63 °FOvercast.7 mph75%30.00 "Hg10 mi
7:53 AM63 °FOvercast.8 mph75%29.99 "Hg10 mi
6:53 AM63 °FOvercast.No wind75%29.98 "Hg10 mi
5:53 AM63 °FOvercast.3 mph75%29.97 "Hg10 mi
4:53 AM63 °FOvercast.5 mph75%29.97 "Hg10 mi
3:53 AM64 °FOvercast.12 mph73%29.97 "Hg10 mi
2:53 AM64 °FOvercast.13 mph75%29.97 "Hg10 mi
1:53 AM64 °FOvercast.12 mph75%29.97 "Hg10 mi
12:53 AM64 °FOvercast.10 mph75%29.97 "Hg10 mi
Weather by CustomWeather, © 2016

See weather overviewHow to use our weather pages